Flag for U.S.A. Weather past 2 weeks in Rochester, New York, U.S.A.

Now
69 °F

More clouds than sun.


Feels Like: 69 °F
Forecast: 61 / 72 °F
Wind: 3 mph from Northwest

Location: Greater Rochester International Airport

Current Time: Jul 4, 2015 at 10:25:15 AM

Latest Report: Jul 4, 2015 at 9:54 AM


Visibility: 10 mi

Pressure: 29.93 "Hg

Humidity: 66%

Dew point: 57 °F

Location of RochesterLocation

Historic Weather in Rochester — Graph

°F

Rochester temperature yesterday

Maximum temperature yesterday: 75 °F (at 2:54 PM)
Minimum temperature yesterday: 51 °F (at 3:54 AM)
Average temperature yesterday: 63 °F

Past Weeks' High & Low Weather Summary

 TemperatureHumidityPressure
High83 °F (Jun 22, 4:54 PM)97% (Jul 1, 4:54 AM)30.11 "Hg (Jul 1, 4:54 AM)
Low51 °F (Jun 20, 3:54 AM)31% (Jun 24, 4:54 PM)29.67 "Hg (Jun 23, 6:54 AM)
Average66 °F71%29.92 "Hg
* Reported Jun 19 8:54 AM — Jul 4 8:54 AM, Rochester, Weather by CustomWeather, © 2015

Note: Actual official high and low records may vary slightly from our data, if they occured in-between our weather recording intervals... More about our weather records

Advertising

Rochester weather history for previous 24 hours

 ConditionsComfort  
Time TempWeatherWind HumidityBarometerVisibility
8:54 AM
Sat, Jul 4
65 °FOvercast.No wind73%29.94 "Hg10 mi
7:54 AM61 °FOvercast.No wind78%29.92 "Hg10 mi
6:54 AM60 °FMore clouds than sun.3 mph83%29.91 "Hg10 mi
5:54 AM60 °FOvercast.No wind78%29.90 "Hg10 mi
4:54 AM60 °FPassing clouds.3 mph78%29.90 "Hg10 mi
3:54 AM62 °FPassing clouds.No wind67%29.89 "Hg10 mi
2:54 AM63 °FPassing clouds.No wind58%29.90 "Hg10 mi
1:54 AM63 °FMostly cloudy.6 mph56%29.91 "Hg10 mi
12:54 AM64 °FOvercast.5 mph50%29.93 "Hg10 mi
11:54 PM
Fri, Jul 3
64 °FPartly cloudy.5 mph52%29.94 "Hg10 mi
10:54 PM64 °FPassing clouds.6 mph49%29.93 "Hg10 mi
9:54 PM66 °FPartly cloudy.9 mph43%29.94 "Hg10 mi
8:54 PM66 °FBroken clouds.8 mph52%29.93 "Hg10 mi
7:54 PM68 °FPartly sunny.8 mph53%29.95 "Hg10 mi
6:54 PM70 °FPartly sunny.10 mph49%29.95 "Hg10 mi
5:54 PM71 °FPartly sunny.15 mph45%29.96 "Hg10 mi
4:54 PM72 °FPartly sunny.14 mph46%29.97 "Hg10 mi
3:54 PM74 °FPartly sunny.12 mph45%29.97 "Hg10 mi
2:54 PM75 °FPartly sunny.No wind37%29.98 "Hg10 mi
1:54 PM74 °FPartly sunny.6 mph40%29.99 "Hg10 mi
12:54 PM72 °FPassing clouds.6 mph40%30.01 "Hg10 mi
11:54 AM71 °FPassing clouds.5 mph41%30.02 "Hg10 mi
10:54 AM69 °FSunny.3 mph55%30.03 "Hg10 mi
Weather by CustomWeather, © 2015

See weather overviewHow to use our weather pages